| time (UTC) | temp C | wind direction | speed KPH | gust KPH | rain 1hr cm | rain 24hr cm | rain mn cm | humidity % | barometer mb |
| 20260510174513 | 7 | 25 | 0.0 | 0.0 | 0.00 | 0.00 | 0.00 | 99 | 1031.6 |
| 20260510173011 | 7 | 25 | 0.0 | 0.0 | 0.00 | 0.00 | 0.00 | 99 | 1031.7 |
| 20260510171511 | 7 | 25 | 0.0 | 0.0 | 0.00 | 0.00 | 0.00 | 99 | 1031.8 |
| 20260510170018 | 7 | 25 | 0.0 | 0.0 | 0.00 | 0.00 | 0.00 | 99 | 1031.8 |
| 20260510164510 | 7 | 25 | 0.0 | 0.0 | 0.00 | 0.00 | 0.00 | 99 | 1031.8 |
| 20260510163008 | 7 | 25 | 0.0 | 0.0 | 0.00 | 0.00 | 0.00 | 99 | 1031.8 |
| 20260510161508 | 7 | 29 | 0.0 | 1.6 | 0.00 | 0.00 | 0.00 | 99 | 1031.8 |
| 20260510160008 | 7 | 317 | 0.0 | 0.0 | 0.00 | 0.00 | 0.00 | 99 | 1031.8 |
| 20260510154507 | 7 | 317 | 0.0 | 0.0 | 0.00 | 0.00 | 0.00 | 99 | 1031.8 |
| 20260510153014 | 7 | 317 | 0.0 | 0.0 | 0.00 | 0.00 | 0.00 | 99 | 1031.9 |
| 20260510151505 | 7 | 316 | 0.0 | 0.0 | 0.00 | 0.00 | 0.00 | 99 | 1031.8 |
| 20260510150004 | 7 | 316 | 0.0 | 0.0 | 0.00 | 0.00 | 0.00 | 99 | 1031.8 |
| 20260510144508 | 7 | 316 | 0.0 | 0.0 | 0.00 | 0.00 | 0.00 | 99 | 1031.8 |
| 20260510143002 | 7 | 316 | 0.0 | 0.0 | 0.00 | 0.00 | 0.00 | 98 | 1031.8 |
| 20260510141502 | 7 | 9 | 0.0 | 3.2 | 0.00 | 0.00 | 0.00 | 98 | 1031.8 |
| 20260510140058 | 8 | 160 | 0.0 | 0.0 | 0.00 | 0.00 | 0.00 | 99 | 1031.8 |
| 20260510134558 | 8 | 160 | 0.0 | 0.0 | 0.00 | 0.00 | 0.00 | 99 | 1031.8 |
| 20260510133058 | 8 | 160 | 0.0 | 0.0 | 0.00 | 0.00 | 0.00 | 99 | 1031.9 |
| 20260510131556 | 8 | 160 | 0.0 | 0.0 | 0.00 | 0.00 | 0.00 | 99 | 1031.9 |
| 20260510130059 | 8 | 160 | 0.0 | 0.0 | 0.00 | 0.00 | 0.00 | 99 | 1031.9 |
| 20260510124656 | 8 | 160 | 0.0 | 0.0 | 0.00 | 0.00 | 0.00 | 99 | 1032.0 |
| 20260510123054 | 8 | 160 | 0.0 | 0.0 | 0.00 | 0.00 | 0.00 | 99 | 1032.1 |
| 20260510121555 | 8 | 160 | 0.0 | 0.0 | 0.00 | 0.00 | 0.00 | 99 | 1032.1 |
| 20260510120054 | 8 | 160 | 0.0 | 0.0 | 0.00 | 0.00 | 0.00 | 99 | 1032.1 |
| 20260510114552 | 8 | 160 | 0.0 | 0.0 | 0.00 | 0.00 | 0.00 | 99 | 1032.0 |
| 20260510113051 | 8 | 160 | 0.0 | 0.0 | 0.00 | 0.00 | 0.00 | 99 | 1031.9 |
| 20260510111551 | 8 | 160 | 0.0 | 0.0 | 0.00 | 0.00 | 0.00 | 99 | 1031.9 |
| 20260510110053 | 8 | 160 | 0.0 | 1.6 | 0.00 | 0.00 | 0.00 | 99 | 1031.7 |
| 20260510104554 | 8 | 146 | 0.0 | 3.2 | 0.00 | 0.00 | 0.00 | 99 | 1031.7 |
| 20260510103046 | 9 | 219 | 0.0 | 3.2 | 0.00 | 0.00 | 0.00 | 99 | 1031.6 |
| 20260510101547 | 9 | 161 | 0.0 | 0.0 | 0.00 | 0.00 | 0.00 | 99 | 1031.6 |
| 20260510100045 | 9 | 161 | 0.0 | 0.0 | 0.00 | 0.00 | 0.00 | 99 | 1031.6 |
| 20260510094544 | 9 | 161 | 0.0 | 0.0 | 0.00 | 0.00 | 0.00 | 99 | 1031.6 |
| 20260510093047 | 9 | 161 | 0.0 | 0.0 | 0.00 | 0.00 | 0.00 | 99 | 1031.6 |
| 20260510091551 | 9 | 161 | 0.0 | 0.0 | 0.00 | 0.00 | 0.00 | 99 | 1031.4 |
| 20260510090046 | 10 | 161 | 0.0 | 0.0 | 0.00 | 0.00 | 0.00 | 99 | 1031.2 |
| 20260510084544 | 10 | 170 | 0.0 | 1.6 | 0.00 | 0.00 | 0.00 | 99 | 1031.1 |
| 20260510083053 | 10 | 231 | 0.0 | 1.6 | 0.00 | 0.00 | 0.00 | 99 | 1031.0 |
| 20260510081542 | 10 | 158 | 0.0 | 4.8 | 0.00 | 0.00 | 0.00 | 99 | 1030.9 |
| 20260510080045 | 10 | 175 | 0.0 | 3.2 | 0.00 | 0.00 | 0.00 | 99 | 1030.6 |
| 20260510074540 | 10 | 161 | 0.0 | 3.2 | 0.00 | 0.00 | 0.00 | 99 | 1030.5 |
| 20260510073038 | 10 | 193 | 0.0 | 3.2 | 0.00 | 0.00 | 0.00 | 99 | 1030.5 |
| 20260510071540 | 10 | 143 | 0.0 | 3.2 | 0.00 | 0.00 | 0.00 | 99 | 1030.3 |
| 20260510070038 | 10 | 165 | 0.0 | 4.8 | 0.00 | 0.00 | 0.00 | 98 | 1030.3 |
| 20260510064540 | 10 | 188 | 0.0 | 4.8 | 0.00 | 0.00 | 0.00 | 98 | 1030.2 |
| 20260510063052 | 10 | 181 | 3.2 | 8.0 | 0.00 | 0.00 | 0.00 | 98 | 1030.2 |
| 20260510061537 | 10 | 106 | 0.0 | 4.8 | 0.00 | 0.00 | 0.00 | 98 | 1030.1 |
| 20260510060037 | 10 | 115 | 1.6 | 6.4 | 0.00 | 0.00 | 0.00 | 98 | 1030.1 |
| 20260510054535 | 11 | 175 | 0.0 | 8.0 | 0.00 | 0.00 | 0.00 | 98 | 1030.0 |
| 20260510053034 | 11 | 187 | 3.2 | 6.4 | 0.00 | 0.00 | 0.00 | 98 | 1029.9 |
| 20260510051534 | 11 | 186 | 0.0 | 6.4 | 0.00 | 0.00 | 0.00 | 98 | 1030.0 |
| 20260510050042 | 11 | 198 | 1.6 | 6.4 | 0.00 | 0.00 | 0.00 | 98 | 1030.0 |
| 20260510044532 | 11 | 160 | 1.6 | 4.8 | 0.00 | 0.00 | 0.00 | 98 | 1030.0 |
| 20260510043032 | 11 | 164 | 0.0 | 8.0 | 0.00 | 0.00 | 0.00 | 97 | 1030.0 |
| 20260510041532 | 11 | 139 | 1.6 | 8.0 | 0.00 | 0.00 | 0.00 | 97 | 1030.0 |
| 20260510040032 | 11 | 173 | 4.8 | 8.0 | 0.00 | 0.00 | 0.00 | 97 | 1030.0 |
| 20260510034530 | 11 | 203 | 1.6 | 9.7 | 0.00 | 0.00 | 0.00 | 96 | 1030.2 |
| 20260510033029 | 11 | 205 | 1.6 | 8.0 | 0.00 | 0.00 | 0.00 | 96 | 1030.2 |
| 20260510031528 | 11 | 144 | 3.2 | 8.0 | 0.00 | 0.00 | 0.00 | 96 | 1030.3 |
| 20260510030026 | 11 | 199 | 3.2 | 6.4 | 0.00 | 0.00 | 0.00 | 96 | 1030.4 |
| 20260510024527 | 11 | 177 | 3.2 | 8.0 | 0.00 | 0.00 | 0.00 | 95 | 1030.4 |
| 20260510023024 | 11 | 147 | 4.8 | 9.7 | 0.00 | 0.00 | 0.00 | 96 | 1030.4 |
| 20260510021525 | 11 | 216 | 3.2 | 6.4 | 0.00 | 0.00 | 0.00 | 97 | 1030.8 |
| 20260510020019 | 10 | 243 | 1.6 | 6.4 | 0.00 | 0.00 | 0.00 | 98 | 1031.1 |
| 20260510014515 | 10 | 210 | 0.0 | 3.2 | 0.00 | 0.00 | 0.00 | 99 | 1031.3 |
| 20260510013013 | 10 | 141 | 1.6 | 4.8 | 0.00 | 0.00 | 0.00 | 99 | 1031.5 |
| 20260510011513 | 10 | 133 | 1.6 | 4.8 | 0.00 | 0.00 | 0.00 | 99 | 1031.6 |
| 20260510010011 | 10 | 198 | 1.6 | 4.8 | 0.00 | 0.00 | 0.00 | 99 | 1031.6 |
| 20260510004511 | 10 | 237 | 0.0 | 6.4 | 0.00 | 0.00 | 0.00 | 99 | 1031.6 |
| 20260510003010 | 9 | 148 | 1.6 | 3.2 | 0.00 | 0.00 | 0.00 | 99 | 1031.6 |
| 20260510001509 | 9 | 227 | 0.0 | 3.2 | 0.00 | 0.00 | 0.00 | 99 | 1031.6 |
| 20260510000107 | 9 | 133 | 0.0 | 4.8 | 0.00 | 0.00 | 0.00 | 99 | 1031.6 |
| 20260509234520 | 9 | 167 | 0.0 | 4.8 | 0.00 | 0.00 | 0.00 | 99 | 1031.5 |
| 20260509233007 | 9 | 125 | 0.0 | 3.2 | 0.00 | 0.00 | 0.00 | 99 | 1031.5 |
| 20260509231509 | 9 | 172 | 0.0 | 3.2 | 0.00 | 0.00 | 0.00 | 99 | 1031.6 |
| 20260509230004 | 9 | 152 | 0.0 | 1.6 | 0.00 | 0.00 | 0.00 | 99 | 1031.5 |
| 20260509224508 | 8 | 156 | 0.0 | 1.6 | 0.00 | 0.00 | 0.00 | 99 | 1031.4 |
| 20260509223001 | 8 | 182 | 0.0 | 1.6 | 0.00 | 0.00 | 0.00 | 99 | 1031.3 |
| 20260509221601 | 8 | 175 | 0.0 | 3.2 | 0.00 | 0.00 | 0.00 | 99 | 1031.2 |
| 20260509220057 | 8 | 158 | 0.0 | 1.6 | 0.00 | 0.00 | 0.00 | 99 | 1030.9 |
| 20260509214556 | 8 | 141 | 1.6 | 4.8 | 0.00 | 0.00 | 0.00 | 99 | 1030.7 |
| 20260509213056 | 8 | 167 | 0.0 | 4.8 | 0.00 | 0.00 | 0.00 | 99 | 1030.5 |
| 20260509211551 | 8 | 176 | 1.6 | 4.8 | 0.00 | 0.00 | 0.00 | 99 | 1030.4 |
| 20260509210057 | 8 | 168 | 0.0 | 4.8 | 0.00 | 0.00 | 0.00 | 99 | 1030.2 |
| 20260509204545 | 8 | 162 | 1.6 | 4.8 | 0.00 | 0.00 | 0.00 | 99 | 1030.0 |
| 20260509203053 | 8 | 224 | 0.0 | 3.2 | 0.00 | 0.00 | 0.00 | 99 | 1029.9 |
| 20260509201541 | 8 | 193 | 0.0 | 4.8 | 0.00 | 0.00 | 0.00 | 99 | 1029.7 |
| 20260509200039 | 8 | 146 | 0.0 | 3.2 | 0.00 | 0.00 | 0.00 | 99 | 1029.6 |
| 20260509194538 | 8 | 170 | 0.0 | 3.2 | 0.00 | 0.00 | 0.00 | 99 | 1029.5 |
| 20260509193036 | 8 | 157 | 0.0 | 4.8 | 0.00 | 0.00 | 0.00 | 99 | 1029.4 |
| 20260509191534 | 8 | 189 | 0.0 | 1.6 | 0.00 | 0.00 | 0.00 | 99 | 1029.2 |
| 20260509190032 | 8 | 165 | 0.0 | 1.6 | 0.00 | 0.00 | 0.00 | 99 | 1029.0 |
| 20260509184543 | 8 | 162 | 0.0 | 1.6 | 0.00 | 0.00 | 0.00 | 99 | 1028.9 |
| 20260509183029 | 8 | 124 | 0.0 | 4.8 | 0.00 | 0.00 | 0.00 | 99 | 1028.8 |
| 20260509181529 | 8 | 168 | 1.6 | 4.8 | 0.00 | 0.00 | 0.00 | 99 | 1028.7 |
| 20260509180048 | 9 | 125 | 3.2 | 8.0 | 0.00 | 0.00 | 0.00 | 99 | 1028.5 |